This is the latest recevied weather packets stored in our database for station/object KU9TRY. If no packets are shown the sender has not sent any weather packets the latest 10 day(s).
| Time | Temp. | Humidity | Pressure | Rain* | Wind** | Luminosity | Snow |
|---|---|---|---|---|---|---|---|
| 1777542664 | 11.11° C | 77% | 1015.3 hPa | 0 mm | - | 0 W/m² | - |
| 1777542360 | 11.67° C | 79% | 1015.5 hPa | 0 mm | - | 0 W/m² | - |
| 1777542057 | 11.11° C | 78% | 1015.2 hPa | 0 mm | - | 0 W/m² | - |
| 1777541754 | 11.11° C | 83% | 1015.2 hPa | 0 mm | - | 0 W/m² | - |
| 1777541451 | 11.11° C | 82% | 1015.3 hPa | 0 mm | - | 0 W/m² | - |
| 1777541147 | 10.56° C | 85% | 1015.3 hPa | 0 mm | - | 0 W/m² | - |
| 1777540844 | 10.56° C | 87% | 1015.3 hPa | 0 mm | - | 0 W/m² | - |
| 1777540542 | 10° C | 89% | 1015 hPa | 0 mm | - | 0 W/m² | - |
| 1777540238 | 10° C | 91% | 1015.3 hPa | 0 mm | - | 0 W/m² | - |
| 1777539933 | 10° C | 89% | 1015.1 hPa | 0 mm | - | 0 W/m² | - |
| 1777539630 | 10° C | 89% | 1015.1 hPa | 0 mm | - | 0 W/m² | - |
| 1777539326 | 10.56° C | 87% | 1015 hPa | 0 mm | - | 0 W/m² | - |
| 1777539023 | 10.56° C | 87% | 1015 hPa | 0 mm | - | 0 W/m² | - |
| 1777538719 | 11.11° C | 84% | 1015 hPa | 0 mm | - | 0 W/m² | - |
| 1777538414 | 11.11° C | 84% | 1015 hPa | 0 mm | - | 0 W/m² | - |
| 1777538110 | 11.67° C | 78% | 1015 hPa | 0 mm | - | 0 W/m² | - |
| 1777537805 | 11.67° C | 79% | 1014.9 hPa | 0 mm | - | 0 W/m² | - |
| 1777537503 | 11.67° C | 79% | 1014.7 hPa | 0 mm | - | 0 W/m² | - |
| 1777537198 | 11.67° C | 78% | 1014.7 hPa | 0 mm | - | 0 W/m² | - |
| 1777536894 | 12.22° C | 78% | 1014.9 hPa | 0 mm | - | 0 W/m² | - |
| 1777536592 | 12.22° C | 81% | 1014.7 hPa | 0 mm | - | 0 W/m² | - |
| 1777536288 | 12.22° C | 76% | 1014.8 hPa | 0 mm | - | 0 W/m² | - |
| 1777535984 | 12.22° C | 76% | 1014.9 hPa | 0 mm | - | 0 W/m² | - |
| 1777535680 | 12.78° C | 77% | 1014.4 hPa | 0 mm | - | 0 W/m² | - |
| 1777535377 | 12.78° C | 76% | 1014.4 hPa | 0 mm | - | 0 W/m² | - |
* Rain latest hour (hover to see other rain measurements)
** Current wind speed in m/s (hover to see current wind gust speed)